Regional Weather Roundup
Issued by NWS

Home | Current Version | Previous Version | Text Only | Print | Product List | Glossary On
Versions: 1 2 3 4 5 6 7 8 9 10 11 12 13 14 15 16 17 18 19 20 21 22 23 24 25 26 27 28 29 30 31 32 33 34 35 36 37 38 39 40 41 42 43 44 45 46 47 48 49 50
000
ASUS43 KIND 201359
RWRIN

WEATHER ROUNDUP FOR INDIANA
NATIONAL WEATHER SERVICE INDIANAPOLIS IN
900 AM EST SAT JAN 20 2018

NOTE: "FAIR" INDICATES FEW OR NO CLOUDS BELOW 12,000 FEET WITH NO
SIGNIFICANT WEATHER AND/OR OBSTRUCTIONS TO VISIBILITY.

* - STATION DOES NOT REPORT WEATHER SUCH AS PRECIPITATION OR FOG.

+ - STATION NOT QUALITY CONTROLLED BY THE NATIONAL WEATHER SERVICE.
    USE DATA WITH CAUTION...ESPECIALLY DEWPOINT AND RELATIVE
    HUMIDITY OBSERVATIONS.

INZ001>003-010>013-019-020-201500-
NORTHWEST INDIANA

CITY           SKY/WX    TMP DP  RH WIND       PRES   REMARKS
GARY /AIRPORT/ PTCLDY    34  27  75 SW9       29.93R WCI  26
KNOX *+        FAIR      30  27  86 SW9       29.94R WCI  22
MONTICELLO +   FAIR      31  25  78 S13       29.97R WCI  21

$$

LMZ046-743>745-201500-
SOUTHERN LAKE MICHIGAN

STATION/POSITION TIME  TEMP    WIND        PRES    WAVE
                       AIR SEA DIR/SP/G            HT
                 (UTC) (F)     (DEG/KT/KT) (MB)    (FT)
BURNS HARBOR     1340   35     200/ 12/ 22 1013.9R
MICHIGAN CITY    1330   35     190/ 14/ 16   N/A

$$

INZ004-005-014>016-021>024-201500-
NORTH CENTRAL INDIANA

CITY           SKY/WX    TMP DP  RH WIND       PRES   REMARKS
ELKHART        CLEAR     32  27  80 SW7       29.92R WCI  26
GOSHEN         FAIR      31  25  78 SW14      29.93R WCI  21
PERU/GRISSOM   FAIR      31  27  84 SW15      29.97R WCI  21
SOUTH BEND     FAIR      30  25  81 SW15      29.93R WCI  19

$$

INZ006>009-017-018-025>027-201500-
NORTHEAST INDIANA

CITY           SKY/WX    TMP DP  RH WIND       PRES   REMARKS
FORT WAYNE     MOCLDY    33  26  75 SW14      29.97R WCI  23
KENDALLVILLE + FAIR      32  26  77 SW13      29.93R WCI  22

$$

INZ028-029-035-036-043>045-051>053-201500-
WEST CENTRAL INDIANA

CITY           SKY/WX    TMP DP  RH WIND       PRES   REMARKS
GREENCASTLE +  FAIR      32  21  64 SW7       30.04R WCI  26
LAFAYETTE      FAIR      31  25  78 SW6       30.00R WCI  25
TERRE HAUTE    FAIR      29  21  72 S8        30.05R WCI  21

$$

INZ030>032-037>040-046>048-054>057-064-065-201500-
CENTRAL INDIANA

CITY           SKY/WX    TMP DP  RH WIND       PRES   REMARKS
ANDERSON       CLEAR     30  19  64 S12       30.02  WCI  21
COLUMBUS       MOCLDY    30  18  59 SE7       30.08R WCI  23
GREENWOOD *+   FAIR      35  24  62 SW8       30.04R WCI  29
INDIANAPOLIS   MOCLDY    32  23  69 SW9       30.04R WCI  24
-EAGLE CREEK   FAIR      33  22  63 SW9       30.02R WCI  25
MT COMFORT *+  FAIR      32  25  74 SW9       30.03R WCI  24
SHELBYVILLE    FAIR      31  19  61 S10       30.05R WCI  22

$$

INZ033-034-041-042-049-050-058-059-201500-
EAST CENTRAL INDIANA

CITY           SKY/WX    TMP DP  RH WIND       PRES   REMARKS
MUNCIE         FAIR      34  22  61 SW14      30.00R WCI  25
RICHMOND +     FAIR      30  23  74 SW10      30.04R WCI  21

$$

INZ060-061-067>069-081>083-085>088-201500-
SOUTHWEST INDIANA

CITY           SKY/WX    TMP DP  RH WIND       PRES   REMARKS
EVANSVILLE     FAIR      33  21  61 SW8       30.12R WCI  26
HUNTINGBURG +  FAIR      34  19  54 S7        30.13R WCI  28

$$

INZ062-063-066-070>080-084-089>092-201500-
SOUTH CENTRAL AND SOUTHEAST INDIANA

CITY           SKY/WX    TMP DP  RH WIND       PRES   REMARKS
BLOOMINGTON    FAIR      36  22  56 SW13      30.07R WCI  27
FRENCH LICK *+ FAIR      36  12  38 SW7       30.11R WCI  30
SEYMOUR +      FAIR      36  21  55 S5        30.10R WCI  32

$$





USA.gov is the U.S. government's official web portal to all federal, state and local government web resources and services.